Weather History for KBRL - April, 2013

Change the Weather History Date:

Friday, April 26, 2013

  Actual Average Record
Temperature  
Mean Temperature 56 °F 57 °F  
Max Temperature 65 °F 68 °F 92 °F (1986)
Min Temperature 47 °F 46 °F 31 °F (1950)
Degree Days  
Heating Degree Days 9 9  
Month to date heating degree days 428 326  
Since 1 July heating degree days 5754 5432  
Cooling Degree Days 0 1  
Month to date cooling degree days 0 16  
Year to date cooling degree days 0 18  
Growing Degree Days 4 (Base 50)    
Moisture  
Dew Point 42 °F    
Average Humidity 64    
Maximum Humidity 77    
Minimum Humidity 51    
Precipitation  
Precipitation 0.00 in 0.14 in 0.77 in (1959)
Month to date precipitation 5.66 3.14  
Year to date precipitation 11.58 8.79  
Sea Level Pressure  
Sea Level Pressure 30.25 in    
Wind  
Wind Speed 13 mph (South)    
Max Wind Speed 28 mph    
Max Gust Speed 33 mph    
Visibility 9 miles    
Events      
T = Trace of Precipitation, MM = Missing Value Source: NWS Daily Summary

Daily Weather History Graph

Daily Weather History Graph

Search for Another Location

Airport or City:

Trip Planner

Search our weather history database for the weather conditions in past years. The results will help you decide how hot, cold, wet, or windy it might be!

Date:

Astronomy

Apr. 26, 2013 Rise Set
Actual Time 6:09 AM CDT 7:55 PM CDT
Civil Twilight 5:39 AM CDT 8:25 PM CDT
Nautical Twilight 5:04 AM CDT 9:00 PM CDT
Astronomical Twilight 4:26 AM CDT 9:39 PM CDT
Moon 9:19 PM CDT (4/26) 6:36 AM CDT (4/26)
Length of Visible Light 14h 45m
Length of Day
13h 46m
Full, 99% of the Moon is Illuminated
Apr 26
Full
May 2
Last Quarter
May 9
New
May 17
First Quarter
May 24
Full

Hourly Weather History & Observations

Time (CDT) Temp. Dew Point Humidity Pressure Visibility Wind Dir Wind Speed Gust Speed Precip Events Conditions
12:53 AM 48.9 °F 33.1 °F 54% 30.27 in 10.0 mi SSE 8.1 mph - N/A   Clear
1:53 AM 48.2 °F 33.8 °F 58% 30.24 in 10.0 mi SSE 8.1 mph - N/A   Clear
2:53 AM 48.9 °F 33.1 °F 54% 30.23 in 10.0 mi SSE 9.2 mph - N/A   Clear
3:53 AM 48.9 °F 34.0 °F 56% 30.24 in 10.0 mi South 11.5 mph - N/A   Clear
4:53 AM 46.9 °F 35.1 °F 63% 30.23 in 10.0 mi South 8.1 mph - N/A   Clear
5:53 AM 48.0 °F 36.0 °F 63% 30.23 in 10.0 mi South 10.4 mph - N/A   Clear
6:53 AM 48.9 °F 37.0 °F 64% 30.22 in 10.0 mi South 10.4 mph - N/A   Clear
7:53 AM 50.0 °F 37.9 °F 63% 30.24 in 10.0 mi South 12.7 mph - N/A   Clear
8:53 AM 54.0 °F 39.9 °F 59% 30.25 in 10.0 mi South 15.0 mph - N/A   Clear
9:53 AM 57.9 °F 44.1 °F 60% 30.26 in 10.0 mi SSW 18.4 mph 23.0 mph N/A   Scattered Clouds
10:17 AM 60.8 °F 44.6 °F 55% 30.26 in 4.0 mi SSW 19.6 mph 25.3 mph N/A   Haze
10:53 AM 61.0 °F 46.0 °F 58% 30.27 in 10.0 mi SSW 20.7 mph 28.8 mph N/A   Clear
11:53 AM 62.1 °F 45.0 °F 53% 30.28 in 9.0 mi SSW 23.0 mph 29.9 mph N/A   Clear
12:53 PM 60.1 °F 43.0 °F 53% 30.27 in 7.0 mi SW 18.4 mph 25.3 mph N/A   Overcast
1:53 PM 63.0 °F 44.1 °F 50% 30.25 in 9.0 mi SSW 15.0 mph 26.5 mph N/A   Overcast
2:53 PM 63.0 °F 46.0 °F 54% 30.23 in 10.0 mi SSW 17.3 mph 29.9 mph N/A   Partly Cloudy
3:53 PM 61.0 °F 46.0 °F 58% 30.22 in 9.0 mi SSW 18.4 mph 28.8 mph N/A   Mostly Cloudy
4:53 PM 60.1 °F 46.0 °F 60% 30.22 in 6.0 mi SSW 17.3 mph 26.5 mph N/A   Haze
5:53 PM 59.0 °F 46.0 °F 62% 30.24 in 10.0 mi SSW 15.0 mph - N/A   Mostly Cloudy
6:53 PM 57.9 °F 46.0 °F 65% 30.24 in 10.0 mi SSW 11.5 mph - N/A   Overcast
7:53 PM 57.0 °F 46.0 °F 67% 30.24 in 10.0 mi South 10.4 mph - N/A   Overcast
8:53 PM 55.9 °F 46.0 °F 69% 30.25 in 10.0 mi South 8.1 mph - N/A   Overcast
9:53 PM 55.9 °F 46.0 °F 69% 30.26 in 10.0 mi South 8.1 mph - N/A   Overcast
10:53 PM 55.9 °F 45.0 °F 67% 30.27 in 10.0 mi South 8.1 mph - N/A   Overcast
11:53 PM 54.0 °F 46.0 °F 75% 30.27 in 10.0 mi South 8.1 mph - N/A   Overcast